sat.trackr.live / text

‹ back to catalog

STARLINK-32833

NORAD 62873 · 2025-022V

PAYLOAD ACTIVE UNKNOWN

§ Identity

Operator
Country
US
Launch date
2025-02-01
Launch site
AFWTR
Launch vehicle
Mass (kg)
RCS (m²)

Purposes: comms

External: N2YO · Heavens-Above · Gunter

§ Orbital elements

Epoch: 2026-09-21T08:41:11.438880Z

Period
93.85 min
Inclination
53.1612°
Eccentricity
0.0001216
Mean motion
15.34401157 rev/d
Perigee alt
461.9 km
Apogee alt
463.5 km
Semi-major
6,840.8 km
B*
4.3109e-4
RAAN
297.5353°
Arg perigee
103.7135°
Mean anomaly
256.4003°
Rev number
9,190

§ Raw data

STARLINK-328331 62873U 25022V   26264.36193795  .00014217  00000+0  43109-3 0  99942 62873  53.1612 297.5353 0001216 103.7135 256.4003 15.34401157 91900

JSON: /api/v1/satellites/62873 · /tle

For live sub-satellite position, see the globe view (requires WebGL).

§ Visibility from observer

Set your observer location to see the next 7 days of passes ≥ 10°. The values pass through the URL so the page stays shareable.

No JS? Fill the form by hand. The geolocation button needs JavaScript.